FW7271 Weather Reports


Display with metric or nautical units.
time (UTC)temp
F
wind
direction
speed
MPH
gust
MPH
rain 1hr
in
rain 24hr
in
rain mn
in
humidity
%
barometer
mb
20260906083102 69 37 1.0 4.0 0.00 0.00 0.00 88 1015.5
20260906081514 70 351 1.0 4.0 0.00 0.00 0.00 89 1015.4
20260906080045 70 40 1.0 3.0 0.00 0.00 0.00 88 1015.4
20260906074608 70 30 1.0 4.0 0.00 0.00 0.00 88 1015.3
20260906073022 71 30 2.0 6.0 0.00 0.00 0.00 88 1015.2
20260906071608 71 24 2.0 8.0 0.00 0.00 0.00 88 1015.1
20260906070002 72 38 0.0 5.0 0.00 0.00 0.00 89 1015.1
20260906064545 72 10 1.0 5.0 0.00 0.00 0.00 89 1015.1
20260906063002 72 47 0.0 3.0 0.00 0.00 0.00 90 1015.1
20260906061549 72 31 0.0 2.0 0.00 0.00 0.00 90 1014.9
20260906060134 73 82 0.0 6.0 0.00 0.00 0.00 90 1014.9
20260906054513 73 23 2.0 6.0 0.00 0.00 0.00 90 1014.7
20260906053057 73 68 1.0 5.0 0.00 0.00 0.00 90 1014.7
20260906051516 73 59 1.0 4.0 0.00 0.00 0.00 89 1014.6
20260906050038 74 203 0.0 3.0 0.00 0.00 0.00 89 1014.5
20260906044610 74 22 0.0 3.0 0.00 0.00 0.00 89 1014.4
20260906043038 74 2 0.0 3.0 0.00 0.00 0.00 89 1014.2
20260906041609 73 23 0.0 3.0 0.00 0.00 0.00 89 1014.3
20260906040005 73 358 2.0 6.0 0.00 0.00 0.00 88 1014.3
20260906034559 73 5 1.0 6.0 0.00 0.00 0.00 88 1014.4
20260906033002 74 43 1.0 7.0 0.00 0.00 0.00 87 1014.4
20260906031547 74 18 4.0 11.0 0.00 0.00 0.00 86 1014.3
20260906030059 74 1 3.0 10.0 0.00 0.00 0.00 86 1014.2
20260906024513 74 32 4.0 13.0 0.00 0.00 0.00 86 1014.1
20260906023056 75 9 9.0 13.0 0.00 0.00 0.00 85 1013.9
20260906021511 75 330 7.0 12.0 0.00 0.00 0.00 84 1013.6
20260906020036 76 337 7.0 14.0 0.00 0.00 0.00 84 1013.5
20260906014609 77 357 7.0 12.0 0.00 0.00 0.00 82 1013.4
20260906013021 77 3 6.0 15.0 0.00 0.00 0.00 82 1013.2
20260906011607 78 1 6.0 17.0 0.00 0.00 0.00 81 1013.2
20260906010002 79 350 6.0 14.0 0.00 0.00 0.00 80 1012.6
20260906004556 80 339 6.0 12.0 0.00 0.00 0.00 78 1012.4
20260906003113 81 351 8.0 15.0 0.00 0.00 0.00 76 1012.5
20260906001556 82 309 8.0 13.0 0.00 0.00 0.00 75 1012.5
20260906000053 83 349 7.0 14.0 0.00 0.00 0.00 74 1012.4
20260905234508 84 346 7.0 14.0 0.00 0.00 0.00 73 1012.2
20260905233052 85 12 7.0 15.0 0.00 0.00 0.00 72 1012.0
20260905231511 86 27 5.0 16.0 0.00 0.00 0.00 70 1011.9
20260905230022 86 334 8.0 20.0 0.00 0.00 0.00 70 1012.0
20260905224601 87 334 6.0 14.0 0.00 0.00 0.00 69 1011.6
20260905223030 88 309 6.0 16.0 0.00 0.00 0.00 69 1011.3
20260905221602 88 336 7.0 18.0 0.00 0.00 0.00 69 1011.0
20260905220112 90 344 7.0 14.0 0.00 0.00 0.00 69 1011.0
20260905214527 90 353 5.0 15.0 0.00 0.00 0.00 69 1010.9
20260905213109 91 354 5.0 14.0 0.00 0.00 0.00 69 1010.7
20260905211525 92 5 4.0 14.0 0.00 0.00 0.00 68 1010.6
20260905210106 92 356 6.0 15.0 0.00 0.00 0.00 67 1010.4
20260905204505 93 274 5.0 10.0 0.00 0.00 0.00 65 1010.6
20260905203047 93 264 4.0 10.0 0.00 0.00 0.00 64 1010.6
20260905201502 93 322 3.0 7.0 0.00 0.00 0.00 65 1010.6
20260905200013 91 320 3.0 7.0 0.00 0.00 0.00 67 1010.7
20260905194557 93 213 3.0 8.0 0.00 0.00 0.00 66 1010.8
20260905193018 93 293 3.0 9.0 0.00 0.00 0.00 67 1011.1
20260905191556 92 311 3.0 10.0 0.00 0.00 0.00 67 1011.4
20260905190109 93 192 4.0 8.0 0.00 0.00 0.00 67 1011.2
20260905184547 93 310 3.0 8.0 0.00 0.00 0.00 65 1011.6
20260905183108 93 226 2.0 6.0 0.00 0.00 0.00 66 1011.7
20260905181544 92 255 2.0 5.0 0.00 0.00 0.00 66 1012.1
20260905180050 92 180 2.0 9.0 0.00 0.00 0.00 66 1012.6
20260905174505 92 213 4.0 9.0 0.00 0.00 0.00 66 1012.7
20260905173053 91 181 1.0 9.0 0.00 0.00 0.00 67 1012.8
20260905171504 90 212 3.0 9.0 0.00 0.00 0.00 66 1013.1
20260905170029 90 196 2.0 7.0 0.00 0.00 0.00 67 1013.1
20260905164600 89 244 2.0 7.0 0.00 0.00 0.00 67 1013.3
20260905163028 88 215 3.0 8.0 0.00 0.00 0.00 68 1013.2
20260905161559 88 114 2.0 8.0 0.00 0.00 0.00 67 1013.3
20260905160111 87 222 3.0 10.0 0.00 0.00 0.00 69 1013.1
20260905154529 86 185 4.0 9.0 0.00 0.00 0.00 70 1013.2
20260905153110 86 236 2.0 9.0 0.00 0.00 0.00 70 1013.4
20260905151537 85 259 2.0 8.0 0.00 0.00 0.00 72 1013.0
20260905150051 84 154 3.0 12.0 0.00 0.00 0.00 73 1013.3
20260905144507 83 132 3.0 11.0 0.00 0.00 0.00 73 1013.6
20260905143047 82 149 2.0 7.0 0.00 0.00 0.00 77 1013.6
20260905141504 82 193 3.0 11.0 0.00 0.00 0.00 77 1013.1
20260905140016 81 157 0.0 4.0 0.00 0.00 0.00 81 1013.0
20260905134559 80 134 2.0 8.0 0.00 0.00 0.00 81 1012.9
20260905133014 79 93 0.0 8.0 0.00 0.00 0.00 82 1013.1
20260905131604 79 162 1.0 7.0 0.00 0.00 0.00 83 1013.2
20260905130109 78 141 2.0 8.0 0.00 0.00 0.00 84 1013.2
20260905124524 78 161 1.0 7.0 0.00 0.00 0.00 85 1013.3
20260905123113 78 176 1.0 6.0 0.00 0.00 0.00 89 1013.1
20260905121519 77 107 0.0 8.0 0.00 0.00 0.00 92 1012.8
20260905120045 76 212 0.0 0.0 0.00 0.00 0.00 93 1012.5
20260905114616 75 211 0.0 0.0 0.00 0.00 0.00 93 1012.4
20260905113029 75 211 0.0 0.0 0.00 0.00 0.00 93 1012.6
20260905111609 75 212 0.0 0.0 0.00 0.00 0.00 93 1012.3
20260905110007 75 212 0.0 0.0 0.00 0.00 0.00 93 1012.2
20260905104551 75 213 0.0 1.0 0.00 0.00 0.00 92 1012.2
20260905103003 76 211 0.0 1.0 0.00 0.00 0.00 92 1012.1
20260905101546 76 212 0.0 1.0 0.00 0.00 0.00 91 1012.1
20260905100108 76 211 0.0 1.0 0.00 0.00 0.00 91 1012.3
20260905094517 76 212 0.0 1.0 0.00 0.00 0.00 91 1012.5
20260905093058 76 211 0.0 0.0 0.00 0.00 0.00 91 1012.4
20260905091511 77 212 0.0 0.0 0.00 0.00 0.00 90 1012.2
20260905090025 77 212 0.0 0.0 0.00 0.00 0.00 90 1012.2
20260905084613 77 212 0.0 0.0 0.00 0.00 0.00 89 1012.2